| time (UTC) | temp C | wind direction | speed KPH | gust KPH | rain 1hr cm | rain 24hr cm | rain mn cm | humidity % | barometer mb |
| 20260506215418 | 31 | 0.0 | 0.0 | 0.00 | 0.00 | 0.00 | 22 | 1006.2 | |
| 20260506214857 | 31 | 0.0 | 0.0 | 0.00 | 0.00 | 0.00 | 25 | 1006.2 | |
| 20260506214556 | 31 | 0.0 | 0.0 | 0.00 | 0.00 | 0.00 | 28 | 1006.3 | |
| 20260506213825 | 31 | 0.0 | 0.0 | 0.00 | 0.00 | 0.00 | 26 | 1006.3 | |
| 20260506213247 | 31 | 0.0 | 0.0 | 0.00 | 0.00 | 0.00 | 25 | 1006.3 | |
| 20260506212746 | 31 | 0.0 | 0.0 | 0.00 | 0.00 | 0.00 | 26 | 1006.5 | |
| 20260506212237 | 31 | 0.0 | 0.0 | 0.00 | 0.00 | 0.00 | 26 | 1006.5 | |
| 20260506211734 | 31 | 0.0 | 0.0 | 0.00 | 0.00 | 0.00 | 24 | 1006.5 | |
| 20260506211457 | 31 | 0.0 | 0.0 | 0.00 | 0.00 | 0.00 | 21 | 1006.5 | |
| 20260506210955 | 31 | 0.0 | 0.0 | 0.00 | 0.00 | 0.00 | 19 | 1006.5 | |
| 20260506210221 | 31 | 0.0 | 0.0 | 0.00 | 0.00 | 0.00 | 12 | 1006.5 | |
| 20260506205719 | 30 | 0.0 | 0.0 | 0.00 | 0.00 | 0.00 | 1 | 1006.8 | |
| 20260506205213 | 30 | 0.0 | 0.0 | 0.00 | 0.00 | 0.00 | 6 | 1006.8 | |
| 20260506204711 | 30 | 0.0 | 0.0 | 0.00 | 0.00 | 0.00 | 5 | 1006.8 | |
| 20260506204141 | 30 | 0.0 | 0.0 | 0.00 | 0.00 | 0.00 | 12 | 1006.8 | |
| 20260506203626 | 30 | 0.0 | 0.0 | 0.00 | 0.00 | 0.00 | 13 | 1006.8 | |
| 20260506203124 | 30 | 0.0 | 0.0 | 0.00 | 0.00 | 0.00 | 9 | 1006.8 | |
| 20260506202624 | 30 | 0.0 | 0.0 | 0.00 | 0.00 | 0.00 | 4 | 1006.9 | |
| 20260506202344 | 30 | 0.0 | 0.0 | 0.00 | 0.00 | 0.00 | 100 | 1006.9 | |
| 20260506201556 | 30 | 0.0 | 0.0 | 0.00 | 0.00 | 0.00 | 100 | 1006.9 | |
| 20260506201256 | 30 | 0.0 | 0.0 | 0.00 | 0.00 | 0.00 | 100 | 1007.0 | |
| 20260506200521 | 30 | 0.0 | 0.0 | 0.00 | 0.00 | 0.00 | 100 | 1007.0 | |
| 20260506195958 | 30 | 0.0 | 0.0 | 0.00 | 0.00 | 0.00 | 100 | 1007.0 | |
| 20260506195441 | 30 | 0.0 | 0.0 | 0.00 | 0.00 | 0.00 | 100 | 1007.2 | |
| 20260506194935 | 30 | 0.0 | 0.0 | 0.00 | 0.00 | 0.00 | 100 | 1007.2 | |
| 20260506194522 | 30 | 0.0 | 0.0 | 0.00 | 0.00 | 0.00 | 100 | 1007.2 | |
| 20260506193923 | 30 | 0.0 | 0.0 | 0.00 | 0.00 | 0.00 | 100 | 1007.3 | |
| 20260506193405 | 30 | 0.0 | 0.0 | 0.00 | 0.00 | 0.00 | 100 | 1007.3 | |
| 20260506192842 | 29 | 0.0 | 0.0 | 0.00 | 0.00 | 0.00 | 100 | 1007.3 | |
| 20260506192341 | 29 | 0.0 | 0.0 | 0.00 | 0.00 | 0.00 | 100 | 1007.5 | |
| 20260506191834 | 29 | 0.0 | 0.0 | 0.00 | 0.00 | 0.00 | 100 | 1007.5 | |
| 20260506191325 | 29 | 0.0 | 0.0 | 0.00 | 0.00 | 0.00 | 100 | 1007.5 | |
| 20260506190823 | 29 | 0.0 | 0.0 | 0.00 | 0.00 | 0.00 | 100 | 1007.5 | |
| 20260506190321 | 29 | 0.0 | 0.0 | 0.00 | 0.00 | 0.00 | 100 | 1007.5 | |
| 20260506185813 | 29 | 0.0 | 0.0 | 0.00 | 0.00 | 0.00 | 100 | 1007.6 | |
| 20260506185222 | 29 | 0.0 | 0.0 | 0.00 | 0.00 | 0.00 | 100 | 1007.6 | |
| 20260506184721 | 30 | 0.0 | 0.0 | 0.00 | 0.00 | 0.00 | 100 | 1007.6 | |
| 20260506184427 | 30 | 0.0 | 0.0 | 0.00 | 0.00 | 0.00 | 100 | 1008.0 | |
| 20260506183912 | 29 | 0.0 | 0.0 | 0.00 | 0.00 | 0.00 | 100 | 1008.0 | |
| 20260506183351 | 29 | 0.0 | 0.0 | 0.00 | 0.00 | 0.00 | 100 | 1008.0 | |
| 20260506182554 | 29 | 0.0 | 0.0 | 0.00 | 0.00 | 0.00 | 100 | 1008.1 | |
| 20260506182045 | 29 | 0.0 | 0.0 | 0.00 | 0.00 | 0.00 | 100 | 1008.1 | |
| 20260506181527 | 29 | 0.0 | 0.0 | 0.00 | 0.00 | 0.00 | 100 | 1008.1 | |
| 20260506181025 | 28 | 0.0 | 0.0 | 0.00 | 0.00 | 0.00 | 100 | 1008.5 | |
| 20260506180510 | 28 | 0.0 | 0.0 | 0.00 | 0.00 | 0.00 | 100 | 1008.5 | |
| 20260506175957 | 29 | 0.0 | 0.0 | 0.00 | 0.00 | 0.00 | 100 | 1008.5 | |
| 20260506175438 | 29 | 0.0 | 0.0 | 0.00 | 0.00 | 0.00 | 100 | 1008.6 | |
| 20260506174929 | 29 | 0.0 | 0.0 | 0.00 | 0.00 | 0.00 | 100 | 1008.6 | |
| 20260506174425 | 28 | 0.0 | 0.0 | 0.00 | 0.00 | 0.00 | 100 | 1008.6 | |
| 20260506174147 | 28 | 0.0 | 0.0 | 0.00 | 0.00 | 0.00 | 100 | 1008.8 | |
| 20260506173416 | 28 | 0.0 | 0.0 | 0.00 | 0.00 | 0.00 | 100 | 1008.8 | |
| 20260506172903 | 28 | 0.0 | 0.0 | 0.00 | 0.00 | 0.00 | 100 | 1008.8 | |
| 20260506172344 | 28 | 0.0 | 0.0 | 0.00 | 0.00 | 0.00 | 100 | 1008.7 | |
| 20260506171820 | 28 | 0.0 | 0.0 | 0.00 | 0.00 | 0.00 | 100 | 1008.7 | |
| 20260506171305 | 28 | 0.0 | 0.0 | 0.00 | 0.00 | 0.00 | 100 | 1008.8 | |
| 20260506170756 | 28 | 0.0 | 0.0 | 0.00 | 0.00 | 0.00 | 100 | 1008.8 | |
| 20260506170248 | 28 | 0.0 | 0.0 | 0.00 | 0.00 | 0.00 | 100 | 1008.8 | |
| 20260506165748 | 27 | 0.0 | 0.0 | 0.00 | 0.00 | 0.00 | 100 | 1008.9 | |
| 20260506165245 | 27 | 0.0 | 0.0 | 0.00 | 0.00 | 0.00 | 100 | 1008.9 | |
| 20260506164719 | 27 | 0.0 | 0.0 | 0.00 | 0.00 | 0.00 | 100 | 1008.9 | |
| 20260506164215 | 27 | 0.0 | 0.0 | 0.00 | 0.00 | 0.00 | 100 | 1008.6 | |
| 20260506163710 | 27 | 0.0 | 0.0 | 0.00 | 0.00 | 0.00 | 100 | 1008.6 | |
| 20260506163150 | 27 | 0.0 | 0.0 | 0.00 | 0.00 | 0.00 | 100 | 1008.6 | |
| 20260506162649 | 27 | 0.0 | 0.0 | 0.00 | 0.00 | 0.00 | 100 | 1008.6 | |
| 20260506162142 | 27 | 0.0 | 0.0 | 0.00 | 0.00 | 0.00 | 100 | 1008.6 | |
| 20260506161624 | 26 | 0.0 | 0.0 | 0.00 | 0.00 | 0.00 | 100 | 1008.6 | |
| 20260506161123 | 26 | 0.0 | 0.0 | 0.00 | 0.00 | 0.00 | 100 | 1008.6 | |
| 20260506160622 | 26 | 0.0 | 0.0 | 0.00 | 0.00 | 0.00 | 100 | 1008.6 | |
| 20260506160121 | 26 | 0.0 | 0.0 | 0.00 | 0.00 | 0.00 | 100 | 1008.6 | |
| 20260506155619 | 26 | 0.0 | 0.0 | 0.00 | 0.00 | 0.00 | 100 | 1008.6 | |
| 20260506155112 | 26 | 0.0 | 0.0 | 0.00 | 0.00 | 0.00 | 100 | 1008.6 | |
| 20260506154608 | 26 | 0.0 | 0.0 | 0.00 | 0.00 | 0.00 | 100 | 1008.6 | |
| 20260506154105 | 26 | 0.0 | 0.0 | 0.00 | 0.00 | 0.00 | 100 | 1008.4 | |
| 20260506153538 | 26 | 0.0 | 0.0 | 0.00 | 0.00 | 0.00 | 100 | 1008.4 | |
| 20260506153024 | 26 | 0.0 | 0.0 | 0.00 | 0.00 | 0.00 | 100 | 1008.4 | |
| 20260506152522 | 26 | 0.0 | 0.0 | 0.00 | 0.00 | 0.00 | 100 | 1008.1 | |
| 20260506152020 | 26 | 0.0 | 0.0 | 0.00 | 0.00 | 0.00 | 100 | 1008.1 | |
| 20260506151520 | 26 | 0.0 | 0.0 | 0.00 | 0.00 | 0.00 | 100 | 1008.1 | |
| 20260506151019 | 26 | 0.0 | 0.0 | 0.00 | 0.00 | 0.00 | 100 | 1008.0 | |
| 20260506150444 | 26 | 0.0 | 0.0 | 0.00 | 0.00 | 0.00 | 100 | 1008.0 | |
| 20260506145922 | 26 | 0.0 | 0.0 | 0.00 | 0.00 | 0.00 | 100 | 1008.0 | |
| 20260506145420 | 26 | 0.0 | 0.0 | 0.00 | 0.00 | 0.00 | 100 | 1007.6 | |
| 20260506144907 | 26 | 0.0 | 0.0 | 0.00 | 0.00 | 0.00 | 100 | 1007.6 | |
| 20260506144327 | 26 | 0.0 | 0.0 | 0.00 | 0.00 | 0.00 | 100 | 1007.6 | |
| 20260506144055 | 26 | 0.0 | 0.0 | 0.00 | 0.00 | 0.00 | 100 | 1007.5 | |
| 20260506143318 | 26 | 0.0 | 0.0 | 0.00 | 0.00 | 0.00 | 100 | 1007.5 | |
| 20260506143038 | 26 | 0.0 | 0.0 | 0.00 | 0.00 | 0.00 | 100 | 1007.5 | |
| 20260506142257 | 25 | 0.0 | 0.0 | 0.00 | 0.00 | 0.00 | 100 | 1007.5 | |
| 20260506141729 | 25 | 0.0 | 0.0 | 0.00 | 0.00 | 0.00 | 100 | 1007.5 | |
| 20260506141228 | 25 | 0.0 | 0.0 | 0.00 | 0.00 | 0.00 | 100 | 1007.6 | |
| 20260506140724 | 25 | 0.0 | 0.0 | 0.00 | 0.00 | 0.00 | 100 | 1007.6 | |
| 20260506140225 | 25 | 0.0 | 0.0 | 0.00 | 0.00 | 0.00 | 100 | 1007.6 | |
| 20260506135713 | 25 | 0.0 | 0.0 | 0.00 | 0.00 | 0.00 | 100 | 1007.8 | |
| 20260506135139 | 25 | 0.0 | 0.0 | 0.00 | 0.00 | 0.00 | 100 | 1007.8 | |
| 20260506134626 | 25 | 0.0 | 0.0 | 0.00 | 0.00 | 0.00 | 100 | 1007.8 | |
| 20260506134125 | 25 | 0.0 | 0.0 | 0.00 | 0.00 | 0.00 | 100 | 1007.8 | |
| 20260506133622 | 25 | 0.0 | 0.0 | 0.00 | 0.00 | 0.00 | 100 | 1007.8 | |
| 20260506133123 | 25 | 0.0 | 0.0 | 0.00 | 0.00 | 0.00 | 100 | 1007.8 | |
| 20260506132613 | 25 | 0.0 | 0.0 | 0.00 | 0.00 | 0.00 | 100 | 1007.6 | |
| 20260506132053 | 25 | 0.0 | 0.0 | 0.00 | 0.00 | 0.00 | 100 | 1007.6 | |
| 20260506131530 | 25 | 0.0 | 0.0 | 0.00 | 0.00 | 0.00 | 100 | 1007.6 | |
| 20260506130520 | 25 | 0.0 | 0.0 | 0.00 | 0.00 | 0.00 | 100 | 1007.7 | |
| 20260506130020 | 25 | 0.0 | 0.0 | 0.00 | 0.00 | 0.00 | 100 | 1007.7 | |
| 20260506125520 | 25 | 0.0 | 0.0 | 0.00 | 0.00 | 0.00 | 100 | 1007.7 | |
| 20260506125015 | 25 | 0.0 | 0.0 | 0.00 | 0.00 | 0.00 | 100 | 1007.7 | |
| 20260506124440 | 25 | 0.0 | 0.0 | 0.00 | 0.00 | 0.00 | 100 | 1007.7 | |
| 20260506123932 | 25 | 0.0 | 0.0 | 0.00 | 0.00 | 0.00 | 100 | 1007.6 | |
| 20260506123425 | 25 | 0.0 | 0.0 | 0.00 | 0.00 | 0.00 | 100 | 1007.6 | |
| 20260506122911 | 25 | 0.0 | 0.0 | 0.00 | 0.00 | 0.00 | 100 | 1007.6 | |
| 20260506122333 | 25 | 0.0 | 0.0 | 0.00 | 0.00 | 0.00 | 100 | 1007.5 | |
| 20260506121824 | 25 | 0.0 | 0.0 | 0.00 | 0.00 | 0.00 | 100 | 1007.5 | |
| 20260506121554 | 25 | 0.0 | 0.0 | 0.00 | 0.00 | 0.00 | 100 | 1007.5 | |
| 20260506120821 | 24 | 0.0 | 0.0 | 0.00 | 0.00 | 0.00 | 100 | 1007.5 | |
| 20260506120315 | 24 | 0.0 | 0.0 | 0.00 | 0.00 | 0.00 | 100 | 1007.5 | |
| 20260506115807 | 24 | 0.0 | 0.0 | 0.00 | 0.00 | 0.00 | 100 | 1007.1 | |
| 20260506115513 | 24 | 0.0 | 0.0 | 0.00 | 0.00 | 0.00 | 100 | 1007.1 | |
| 20260506114730 | 25 | 0.0 | 0.0 | 0.00 | 0.00 | 0.00 | 100 | 1007.1 | |
| 20260506114230 | 25 | 0.0 | 0.0 | 0.00 | 0.00 | 0.00 | 100 | 1007.1 | |
| 20260506113722 | 25 | 0.0 | 0.0 | 0.00 | 0.00 | 0.00 | 100 | 1007.1 | |
| 20260506113219 | 25 | 0.0 | 0.0 | 0.00 | 0.00 | 0.00 | 100 | 1007.1 | |
| 20260506112720 | 25 | 0.0 | 0.0 | 0.00 | 0.00 | 0.00 | 100 | 1007.0 | |
| 20260506112208 | 25 | 0.0 | 0.0 | 0.00 | 0.00 | 0.00 | 100 | 1007.0 | |
| 20260506111653 | 25 | 0.0 | 0.0 | 0.00 | 0.00 | 0.00 | 100 | 1007.0 | |
| 20260506111129 | 25 | 0.0 | 0.0 | 0.00 | 0.00 | 0.00 | 100 | 1006.8 | |
| 20260506110623 | 25 | 0.0 | 0.0 | 0.00 | 0.00 | 0.00 | 100 | 1006.8 | |
| 20260506110124 | 25 | 0.0 | 0.0 | 0.00 | 0.00 | 0.00 | 100 | 1006.8 | |
| 20260506105624 | 25 | 0.0 | 0.0 | 0.00 | 0.00 | 0.00 | 100 | 1006.7 | |
| 20260506105124 | 25 | 0.0 | 0.0 | 0.00 | 0.00 | 0.00 | 100 | 1006.7 | |
| 20260506104619 | 25 | 0.0 | 0.0 | 0.00 | 0.00 | 0.00 | 100 | 1006.7 | |
| 20260506104114 | 25 | 0.0 | 0.0 | 0.00 | 0.00 | 0.00 | 100 | 1007.0 | |
| 20260506103843 | 25 | 0.0 | 0.0 | 0.00 | 0.00 | 0.00 | 100 | 1007.0 | |
| 20260506103046 | 25 | 0.0 | 0.0 | 0.00 | 0.00 | 0.00 | 100 | 1007.0 | |
| 20260506102538 | 25 | 0.0 | 0.0 | 0.00 | 0.00 | 0.00 | 100 | 1006.6 | |
| 20260506102018 | 25 | 0.0 | 0.0 | 0.00 | 0.00 | 0.00 | 100 | 1006.6 | |
| 20260506101516 | 25 | 0.0 | 0.0 | 0.00 | 0.00 | 0.00 | 100 | 1006.6 | |
| 20260506100946 | 25 | 0.0 | 0.0 | 0.00 | 0.00 | 0.00 | 100 | 1006.6 | |
| 20260506100438 | 25 | 0.0 | 0.0 | 0.00 | 0.00 | 0.00 | 100 | 1006.6 | |
| 20260506100157 | 25 | 0.0 | 0.0 | 0.00 | 0.00 | 0.00 | 100 | 1006.6 | |
| 20260506095425 | 25 | 0.0 | 0.0 | 0.00 | 0.00 | 0.00 | 100 | 1006.5 | |
| 20260506094921 | 25 | 0.0 | 0.0 | 0.00 | 0.00 | 0.00 | 100 | 1006.5 | |
| 20260506094416 | 25 | 0.0 | 0.0 | 0.00 | 0.00 | 0.00 | 100 | 1006.5 | |
| 20260506093917 | 25 | 0.0 | 0.0 | 0.00 | 0.00 | 0.00 | 100 | 1006.5 | |
| 20260506093356 | 25 | 0.0 | 0.0 | 0.00 | 0.00 | 0.00 | 100 | 1006.5 | |
| 20260506092835 | 25 | 0.0 | 0.0 | 0.00 | 0.00 | 0.00 | 100 | 1006.5 | |
| 20260506092331 | 25 | 0.0 | 0.0 | 0.00 | 0.00 | 0.00 | 100 | 1006.6 | |
| 20260506091824 | 25 | 0.0 | 0.0 | 0.00 | 0.00 | 0.00 | 100 | 1006.6 | |
| 20260506091325 | 25 | 0.0 | 0.0 | 0.00 | 0.00 | 0.00 | 100 | 1006.7 | |
| 20260506090824 | 25 | 0.0 | 0.0 | 0.00 | 0.00 | 0.00 | 100 | 1006.7 | |
| 20260506090315 | 25 | 0.0 | 0.0 | 0.00 | 0.00 | 0.00 | 100 | 1006.7 | |
| 20260506085722 | 25 | 0.0 | 0.0 | 0.00 | 0.00 | 0.00 | 100 | 1006.7 | |
| 20260506085222 | 25 | 0.0 | 0.0 | 0.00 | 0.00 | 0.00 | 100 | 1006.7 | |
| 20260506084722 | 25 | 0.0 | 0.0 | 0.00 | 0.00 | 0.00 | 100 | 1006.7 | |
| 20260506084211 | 25 | 0.0 | 0.0 | 0.00 | 0.00 | 0.00 | 100 | 1006.7 | |
| 20260506083653 | 25 | 0.0 | 0.0 | 0.00 | 0.00 | 0.00 | 100 | 1006.7 | |
| 20260506083146 | 25 | 0.0 | 0.0 | 0.00 | 0.00 | 0.00 | 100 | 1006.7 | |
| 20260506082900 | 25 | 0.0 | 0.0 | 0.00 | 0.00 | 0.00 | 100 | 1006.8 | |
| 20260506082123 | 25 | 0.0 | 0.0 | 0.00 | 0.00 | 0.00 | 100 | 1006.8 | |
| 20260506081619 | 25 | 0.0 | 0.0 | 0.00 | 0.00 | 0.00 | 100 | 1006.8 | |
| 20260506081043 | 25 | 0.0 | 0.0 | 0.00 | 0.00 | 0.00 | 100 | 1006.9 | |
| 20260506080538 | 25 | 0.0 | 0.0 | 0.00 | 0.00 | 0.00 | 100 | 1006.9 | |
| 20260506080255 | 25 | 0.0 | 0.0 | 0.00 | 0.00 | 0.00 | 100 | 1006.9 | |
| 20260506073434 | 25 | 0.0 | 0.0 | 0.00 | 0.00 | 0.00 | 100 | 1007.1 | |
| 20260506072923 | 25 | 0.0 | 0.0 | 0.00 | 0.00 | 0.00 | 100 | 1007.1 | |
| 20260506072422 | 25 | 0.0 | 0.0 | 0.00 | 0.00 | 0.00 | 100 | 1007.5 | |
| 20260506072141 | 25 | 0.0 | 0.0 | 0.00 | 0.00 | 0.00 | 100 | 1007.5 | |
| 20260506071635 | 25 | 0.0 | 0.0 | 0.00 | 0.00 | 0.00 | 100 | 1007.5 | |
| 20260506070842 | 25 | 0.0 | 0.0 | 0.00 | 0.00 | 0.00 | 100 | 1007.5 | |
| 20260506070556 | 25 | 0.0 | 0.0 | 0.00 | 0.00 | 0.00 | 100 | 1007.5 | |
| 20260506062222 | 25 | 0.0 | 0.0 | 0.00 | 0.00 | 0.00 | 100 | 1007.7 | |
| 20260506061721 | 25 | 0.0 | 0.0 | 0.00 | 0.00 | 0.00 | 100 | 1007.7 | |
| 20260506061212 | 25 | 0.0 | 0.0 | 0.00 | 0.00 | 0.00 | 100 | 1007.6 | |
| 20260506060706 | 25 | 0.0 | 0.0 | 0.00 | 0.00 | 0.00 | 100 | 1007.6 | |
| 20260506060134 | 25 | 0.0 | 0.0 | 0.00 | 0.00 | 0.00 | 100 | 1007.6 | |
| 20260506051017 | 25 | 0.0 | 0.0 | 0.00 | 0.00 | 0.00 | 100 | 1007.5 | |
| 20260506050440 | 25 | 0.0 | 0.0 | 0.00 | 0.00 | 0.00 | 100 | 1007.5 | |
| 20260506045105 | 25 | 0.0 | 0.0 | 0.00 | 0.00 | 0.00 | 100 | 1007.6 | |
| 20260506044324 | 25 | 0.0 | 0.0 | 0.00 | 0.00 | 0.00 | 100 | 1007.5 | |
| 20260506043807 | 25 | 0.0 | 0.0 | 0.00 | 0.00 | 0.00 | 100 | 1007.5 | |
| 20260506043224 | 25 | 0.0 | 0.0 | 0.00 | 0.00 | 0.00 | 100 | 1007.5 | |
| 20260506042723 | 25 | 0.0 | 0.0 | 0.00 | 0.00 | 0.00 | 100 | 1007.4 | |
| 20260506042147 | 25 | 0.0 | 0.0 | 0.00 | 0.00 | 0.00 | 100 | 1007.4 | |
| 20260506041628 | 26 | 0.0 | 0.0 | 0.00 | 0.00 | 0.00 | 100 | 1007.4 | |
| 20260506041128 | 26 | 0.0 | 0.0 | 0.00 | 0.00 | 0.00 | 100 | 1007.3 | |
| 20260506040852 | 26 | 0.0 | 0.0 | 0.00 | 0.00 | 0.00 | 100 | 1007.3 | |
| 20260506040111 | 26 | 0.0 | 0.0 | 0.00 | 0.00 | 0.00 | 100 | 1007.3 | |
| 20260506035529 | 26 | 0.0 | 0.0 | 0.00 | 0.00 | 0.00 | 100 | 1007.1 | |
| 20260506035027 | 26 | 0.0 | 0.0 | 0.00 | 0.00 | 0.00 | 100 | 1007.1 | |
| 20260506034757 | 26 | 0.0 | 0.0 | 0.00 | 0.00 | 0.00 | 100 | 1007.1 | |
| 20260506034024 | 26 | 0.0 | 0.0 | 0.00 | 0.00 | 0.00 | 100 | 1007.0 | |
| 20260506033526 | 26 | 0.0 | 0.0 | 0.00 | 0.00 | 0.00 | 100 | 1007.0 | |
| 20260506033024 | 26 | 0.0 | 0.0 | 0.00 | 0.00 | 0.00 | 100 | 1007.0 | |
| 20260506032526 | 26 | 0.0 | 0.0 | 0.00 | 0.00 | 0.00 | 100 | 1007.0 | |
| 20260506032017 | 26 | 0.0 | 0.0 | 0.00 | 0.00 | 0.00 | 100 | 1007.0 | |
| 20260506031504 | 26 | 0.0 | 0.0 | 0.00 | 0.00 | 0.00 | 100 | 1007.0 | |
| 20260506030952 | 26 | 0.0 | 0.0 | 0.00 | 0.00 | 0.00 | 100 | 1007.0 | |
| 20260506030424 | 26 | 0.0 | 0.0 | 0.00 | 0.00 | 0.00 | 100 | 1007.0 | |
| 20260506025921 | 26 | 0.0 | 0.0 | 0.00 | 0.00 | 0.00 | 100 | 1007.0 | |
| 20260506025401 | 26 | 0.0 | 0.0 | 0.00 | 0.00 | 0.00 | 100 | 1006.7 | |
| 20260506024327 | 26 | 0.0 | 0.0 | 0.00 | 0.00 | 0.00 | 100 | 1006.7 | |
| 20260506023828 | 26 | 0.0 | 0.0 | 0.00 | 0.00 | 0.00 | 100 | 1006.5 | |
| 20260506023328 | 26 | 0.0 | 0.0 | 0.00 | 0.00 | 0.00 | 100 | 1006.5 | |
| 20260506022824 | 26 | 0.0 | 0.0 | 0.00 | 0.00 | 0.00 | 100 | 1006.4 | |
| 20260506022319 | 26 | 0.0 | 0.0 | 0.00 | 0.00 | 0.00 | 100 | 1006.4 | |
| 20260506021820 | 26 | 0.0 | 0.0 | 0.00 | 0.00 | 0.00 | 100 | 1006.4 | |
| 20260506021307 | 26 | 0.0 | 0.0 | 0.00 | 0.00 | 0.00 | 100 | 1006.1 | |
| 20260506020756 | 26 | 0.0 | 0.0 | 0.00 | 0.00 | 0.00 | 100 | 1006.1 | |
| 20260506020247 | 26 | 0.0 | 0.0 | 0.00 | 0.00 | 0.00 | 100 | 1006.1 | |
| 20260506015727 | 26 | 0.0 | 0.0 | 0.00 | 0.00 | 0.00 | 100 | 1006.0 | |
| 20260506015217 | 26 | 0.0 | 0.0 | 0.00 | 0.00 | 0.00 | 100 | 1006.0 | |
| 20260506014707 | 26 | 0.0 | 0.0 | 0.00 | 0.00 | 0.00 | 100 | 1006.0 | |
| 20260506014156 | 26 | 0.0 | 0.0 | 0.00 | 0.00 | 0.00 | 100 | 1005.7 | |
| 20260506013638 | 26 | 0.0 | 0.0 | 0.00 | 0.00 | 0.00 | 100 | 1005.7 | |
| 20260506013127 | 26 | 0.0 | 0.0 | 0.00 | 0.00 | 0.00 | 100 | 1005.7 | |
| 20260506012623 | 26 | 0.0 | 0.0 | 0.00 | 0.00 | 0.00 | 100 | 1005.5 | |
| 20260506012124 | 26 | 0.0 | 0.0 | 0.00 | 0.00 | 0.00 | 100 | 1005.5 | |
| 20260506011622 | 26 | 0.0 | 0.0 | 0.00 | 0.00 | 0.00 | 100 | 1005.5 | |
| 20260506011119 | 27 | 0.0 | 0.0 | 0.00 | 0.00 | 0.00 | 100 | 1005.4 | |
| 20260506010618 | 27 | 0.0 | 0.0 | 0.00 | 0.00 | 0.00 | 100 | 1005.4 | |
| 20260506010105 | 27 | 0.0 | 0.0 | 0.00 | 0.00 | 0.00 | 100 | 1005.4 | |
| 20260506005555 | 27 | 0.0 | 0.0 | 0.00 | 0.00 | 0.00 | 100 | 1005.1 | |
| 20260506005054 | 27 | 0.0 | 0.0 | 0.00 | 0.00 | 0.00 | 100 | 1005.1 | |
| 20260506004258 | 27 | 0.0 | 0.0 | 0.00 | 0.00 | 0.00 | 100 | 1005.0 | |
| 20260506003756 | 27 | 0.0 | 0.0 | 0.00 | 0.00 | 0.00 | 100 | 1005.0 | |
| 20260506003024 | 27 | 0.0 | 0.0 | 0.00 | 0.00 | 0.00 | 100 | 1005.0 | |
| 20260506002521 | 27 | 0.0 | 0.0 | 0.00 | 0.00 | 0.00 | 100 | 1005.0 | |
| 20260506002012 | 27 | 0.0 | 0.0 | 0.00 | 0.00 | 0.00 | 100 | 1005.0 | |
| 20260506001740 | 27 | 0.0 | 0.0 | 0.00 | 0.00 | 0.00 | 100 | 1005.0 | |
| 20260506001232 | 27 | 0.0 | 0.0 | 0.00 | 0.00 | 0.00 | 100 | 1005.0 | |
| 20260506000459 | 27 | 0.0 | 0.0 | 0.00 | 0.00 | 0.00 | 100 | 1005.0 | |
| 20260505235957 | 27 | 0.0 | 0.0 | 0.00 | 0.00 | 0.00 | 100 | 1005.0 | |
| 20260505235200 | 27 | 0.0 | 0.0 | 0.00 | 0.00 | 0.00 | 100 | 1005.0 | |
| 20260505234425 | 27 | 0.0 | 0.0 | 0.00 | 0.00 | 0.00 | 100 | 1005.0 | |
| 20260505233840 | 27 | 0.0 | 0.0 | 0.00 | 0.00 | 0.00 | 100 | 1004.9 | |
| 20260505233328 | 27 | 0.0 | 0.0 | 0.00 | 0.00 | 0.00 | 100 | 1004.9 | |
| 20260505232825 | 27 | 0.0 | 0.0 | 0.00 | 0.00 | 0.00 | 100 | 1005.0 | |
| 20260505232321 | 27 | 0.0 | 0.0 | 0.00 | 0.00 | 0.00 | 100 | 1005.0 | |
| 20260505231821 | 27 | 0.0 | 0.0 | 0.00 | 0.00 | 0.00 | 100 | 1005.0 | |
| 20260505231318 | 27 | 0.0 | 0.0 | 0.00 | 0.00 | 0.00 | 100 | 1005.1 | |
| 20260505230805 | 27 | 0.0 | 0.0 | 0.00 | 0.00 | 0.00 | 100 | 1005.1 | |
| 20260505230248 | 27 | 0.0 | 0.0 | 0.00 | 0.00 | 0.00 | 100 | 1005.1 | |
| 20260505225728 | 27 | 0.0 | 0.0 | 0.00 | 0.00 | 0.00 | 100 | 1005.1 | |
| 20260505225208 | 27 | 0.0 | 0.0 | 0.00 | 0.00 | 0.00 | 100 | 1005.1 | |
| 20260505224906 | 27 | 0.0 | 0.0 | 0.00 | 0.00 | 0.00 | 100 | 1005.1 | |
| 20260505224125 | 27 | 0.0 | 0.0 | 0.00 | 0.00 | 0.00 | 100 | 1005.3 | |
| 20260505223625 | 27 | 0.0 | 0.0 | 0.00 | 0.00 | 0.00 | 100 | 1005.3 | |
| 20260505223355 | 27 | 0.0 | 0.0 | 0.00 | 0.00 | 0.00 | 100 | 1005.3 | |
| 20260505222614 | 27 | 0.0 | 0.0 | 0.00 | 0.00 | 0.00 | 100 | 1005.4 | |
| 20260505222050 | 27 | 0.0 | 0.0 | 0.00 | 0.00 | 0.00 | 100 | 1005.4 | |
| 20260505221537 | 28 | 0.0 | 0.0 | 0.00 | 0.00 | 0.00 | 100 | 1005.4 | |
| 20260505221033 | 28 | 0.0 | 0.0 | 0.00 | 0.00 | 0.00 | 100 | 1005.5 | |
| 20260505220525 | 28 | 0.0 | 0.0 | 0.00 | 0.00 | 0.00 | 100 | 1005.5 | |
| 20260505220017 | 28 | 0.0 | 0.0 | 0.00 | 0.00 | 0.00 | 100 | 1005.5 |